This is the latest recevied weather packets stored in our database for station/object N4WFF. If no packets are shown the sender has not sent any weather packets the latest 10 day(s).
| Time | Temp. | Humidity | Pressure | Rain* | Wind** | Luminosity | Snow |
|---|---|---|---|---|---|---|---|
| 1777929955 | 26.67° C | 35% | 1014.3 hPa | 0 mm | - | 507 W/m² | - |
| 1777929656 | 26.67° C | 36% | 1014.3 hPa | 0 mm | - | 526 W/m² | - |
| 1777929355 | 26.67° C | 35% | 1014.3 hPa | 0 mm | - | 543 W/m² | - |
| 1777929055 | 26.67° C | 37% | 1014.4 hPa | 0 mm | - | 559 W/m² | - |
| 1777928755 | 26.67° C | 36% | 1014.3 hPa | 0 mm | - | 575 W/m² | - |
| 1777928456 | 26.67° C | 36% | 1014.3 hPa | 0 mm | - | 588 W/m² | - |
| 1777928156 | 26.11° C | 36% | 1014.3 hPa | 0 mm | - | 605 W/m² | - |
| 1777927856 | 26.11° C | 36% | 1014.5 hPa | 0 mm | - | 619 W/m² | - |
| 1777927556 | 26.11° C | 36% | 1014.5 hPa | 0 mm | - | 639 W/m² | - |
| 1777927255 | 26.67° C | 36% | 1014.5 hPa | 0 mm | - | 658 W/m² | - |
| 1777926955 | 26.11° C | 37% | 1014.6 hPa | 0 mm | - | 673 W/m² | - |
| 1777926656 | 26.11° C | 37% | 1014.8 hPa | 0 mm | - | 695 W/m² | - |
| 1777926077 | 26.11° C | 36% | 1014.8 hPa | 0 mm | - | 717 W/m² | - |
| 1777925756 | 26.11° C | 37% | 1015 hPa | 0 mm | - | 735 W/m² | - |
| 1777925455 | 26.11° C | 38% | 1015.1 hPa | 0 mm | - | 751 W/m² | - |
| 1777925155 | 26.67° C | 39% | 1015.2 hPa | 0 mm | - | 767 W/m² | - |
| 1777924855 | 26.67° C | 37% | 1015.1 hPa | 0 mm | - | 777 W/m² | - |
| 1777924556 | 26.67° C | 38% | 1015.2 hPa | 0 mm | - | 785 W/m² | - |
| 1777924256 | 26.11° C | 38% | 1015.3 hPa | 0 mm | - | 804 W/m² | - |
| 1777923955 | 26.11° C | 37% | 1015.4 hPa | 0 mm | - | 816 W/m² | - |
| 1777923656 | 26.11° C | 38% | 1015.5 hPa | 0 mm | - | 830 W/m² | - |
| 1777923356 | 26.11° C | 39% | 1015.6 hPa | 0 mm | - | 840 W/m² | - |
| 1777923056 | 25.56° C | 38% | 1015.6 hPa | 0 mm | - | 857 W/m² | - |
| 1777922755 | 25.56° C | 39% | 1015.8 hPa | 0 mm | - | 869 W/m² | - |
| 1777922456 | 25.56° C | 40% | 1015.8 hPa | 0 mm | - | 882 W/m² | - |
* Rain latest hour (hover to see other rain measurements)
** Current wind speed in m/s (hover to see current wind gust speed)